Location: Moreno
(33.9175°N, 117.1578°W)
Time: 15:20:17
(UTC+00:00)

Cosmos 1470 Rocket - Pass Details

Date: 18 April 2024
Orbit: 601 x 629 km, 82.5° (Epoch: 20 May)

Event Time Altitude Azimuth Distance (km) Brightness Sun altitude
Rises 12:07:50 0° 342° (NNW) 2,897 7.1 -13.7°
Reaches altitude 10° 12:10:13 10° 332° (NNW) 1,992 6.1 -13.2°
Maximum altitude 12:14:10 33° 269° (W) 1,057 4.3 -12.5°
Drops below altitude 10° 12:18:07 10° 206° (SSW) 1,993 5.7 -11.7°
Enters shadow 12:19:14 - 200° (SSW) 2,408 6.2 -11.5°
